SWA1763 KPHX-KLAX

Flight info

Callsign SWA1763
Flight time 1h 5m
Altitude 30000
Route KEENS3 WLVRN ESTWD HLYWD1
Aircraft B738/M-SDE2E3FGHIRWXY/LB1

Departure

Time 2026-04-24 20:54
Airport Phoenix Sky Harbor International Airport (KPHX)

Arrival

Time 2026-04-24 22:00
Airport Los Angeles International Airport (KLAX)
Time Latitude Longitude Altitude Speed Heading
2026-04-24 20:35 33.43358 -111.99978 1123 ft 0 kts 40°
2026-04-24 20:47 33.43351 -111.99985 1117 ft 4 kts 44°
2026-04-24 20:48 33.43337 -112.00007 1113 ft 3 kts 69°
2026-04-24 20:48 33.43336 -112.00025 1115 ft 3 kts 122°
2026-04-24 20:48 33.43348 -112.00037 1113 ft 2 kts 163°
2026-04-24 20:48 33.43361 -112.00040 1117 ft 2 kts 174°
2026-04-24 20:49 33.43372 -112.00041 1113 ft 2 kts 179°
2026-04-24 20:49 33.43376 -112.00041 1116 ft 0 kts 181°
2026-04-24 20:50 33.43360 -112.00044 1113 ft 5 kts 181°
2026-04-24 20:51 33.43311 -112.00042 1118 ft 9 kts 183°
2026-04-24 20:51 33.43240 -112.00046 1120 ft 11 kts 159°
2026-04-24 20:51 33.43214 -111.99959 1118 ft 12 kts 92°
2026-04-24 20:51 33.43214 -111.99855 1116 ft 12 kts 88°
2026-04-24 20:52 33.43214 -111.99753 1116 ft 12 kts 91°
2026-04-24 20:52 33.43214 -111.99653 1123 ft 12 kts 90°
2026-04-24 20:52 33.43214 -111.99552 1119 ft 13 kts 90°
2026-04-24 20:52 33.43214 -111.99444 1122 ft 13 kts 90°
2026-04-24 20:53 33.43188 -111.99346 1123 ft 13 kts 141°
2026-04-24 20:53 33.43118 -111.99381 1122 ft 13 kts 239°
2026-04-24 20:53 33.43104 -111.99473 1122 ft 0 kts 269°
2026-04-24 20:54 33.43104 -111.99565 1123 ft 44 kts 270°
2026-04-24 20:54 33.43105 -112.00298 1124 ft 130 kts 270°
2026-04-24 20:54 33.43089 -112.01666 1213 ft 192 kts 270°
2026-04-24 20:54 33.43054 -112.03231 2371 ft 176 kts 266°
2026-04-24 20:55 33.43016 -112.04615 3752 ft 162 kts 268°
2026-04-24 20:55 33.42987 -112.06031 4377 ft 184 kts 267°
2026-04-24 20:55 33.42711 -112.07647 4649 ft 212 kts 248°
2026-04-24 20:55 33.42167 -112.09394 4954 ft 235 kts 250°
2026-04-24 20:56 33.41599 -112.11279 5473 ft 252 kts 250°
2026-04-24 20:56 33.40980 -112.13336 6036 ft 267 kts 250°
2026-04-24 20:56 33.40359 -112.15391 7014 ft 266 kts 250°
2026-04-24 20:56 33.39729 -112.17473 7930 ft 267 kts 250°
2026-04-24 20:57 33.39215 -112.19618 8850 ft 272 kts 263°
2026-04-24 20:57 33.39316 -112.21880 9807 ft 274 kts 277°
2026-04-24 20:57 33.39650 -112.24146 10568 ft 282 kts 278°
2026-04-24 20:57 33.40025 -112.26557 10782 ft 309 kts 278°
2026-04-24 20:58 33.40428 -112.29151 11299 ft 322 kts 279°
2026-04-24 20:58 33.40837 -112.31806 12081 ft 325 kts 278°
2026-04-24 20:58 33.41241 -112.34471 12957 ft 326 kts 278°
2026-04-24 20:58 33.41645 -112.37158 13777 ft 329 kts 278°
2026-04-24 20:59 33.42043 -112.39822 14485 ft 332 kts 278°
2026-04-24 20:59 33.42452 -112.42589 15241 ft 334 kts 278°
2026-04-24 20:59 33.42852 -112.45294 15998 ft 335 kts 278°
2026-04-24 20:59 33.43257 -112.48049 16767 ft 337 kts 278°
2026-04-24 21:00 33.43664 -112.50825 17497 ft 340 kts 278°
2026-04-24 21:00 33.44073 -112.53619 18201 ft 342 kts 278°
2026-04-24 21:00 33.44485 -112.56429 18848 ft 344 kts 278°
2026-04-24 21:00 33.44899 -112.59252 19515 ft 345 kts 278°
2026-04-24 21:01 33.45163 -112.62099 20160 ft 345 kts 272°
2026-04-24 21:01 33.45201 -112.64945 20787 ft 346 kts 269°
2026-04-24 21:01 33.45184 -112.67866 21416 ft 348 kts 269°
2026-04-24 21:01 33.45180 -112.70735 22010 ft 350 kts 270°
2026-04-24 21:02 33.45201 -112.73661 22579 ft 352 kts 270°
2026-04-24 21:02 33.45236 -112.76602 23168 ft 354 kts 270°
2026-04-24 21:02 33.45360 -112.79550 23676 ft 358 kts 277°
2026-04-24 21:02 33.46032 -112.82434 24134 ft 363 kts 288°
2026-04-24 21:03 33.46989 -112.85244 24584 ft 366 kts 289°
2026-04-24 21:03 33.47998 -112.88041 25147 ft 364 kts 290°
2026-04-24 21:03 33.49005 -112.90803 25848 ft 359 kts 290°
2026-04-24 21:03 33.49993 -112.93527 26492 ft 356 kts 289°
2026-04-24 21:04 33.50957 -112.96219 27053 ft 355 kts 289°
2026-04-24 21:04 33.51921 -112.98936 27624 ft 353 kts 289°
2026-04-24 21:04 33.52873 -113.01635 28245 ft 351 kts 288°
2026-04-24 21:04 33.53815 -113.04321 28842 ft 348 kts 288°
2026-04-24 21:05 33.54749 -113.06991 29387 ft 347 kts 289°
2026-04-24 21:05 33.55683 -113.09670 29817 ft 350 kts 288°
2026-04-24 21:05 33.57574 -113.15109 29834 ft 354 kts 288°
2026-04-24 21:06 33.59436 -113.20461 29847 ft 348 kts 288°
2026-04-24 21:06 33.61299 -113.25832 29869 ft 350 kts 288°
2026-04-24 21:07 33.63164 -113.31243 29879 ft 351 kts 287°
2026-04-24 21:07 33.65029 -113.36669 29884 ft 352 kts 288°
2026-04-24 21:08 33.66888 -113.42056 29893 ft 351 kts 287°
2026-04-24 21:08 33.68755 -113.47468 29897 ft 350 kts 287°
2026-04-24 21:09 33.70610 -113.52859 29905 ft 349 kts 287°
2026-04-24 21:09 33.72450 -113.58217 29896 ft 349 kts 287°
2026-04-24 21:10 33.74295 -113.63598 29894 ft 348 kts 287°
2026-04-24 21:10 33.76138 -113.68984 29888 ft 348 kts 287°
2026-04-24 21:11 33.77979 -113.74372 29872 ft 349 kts 287°
2026-04-24 21:11 33.79820 -113.79768 29857 ft 349 kts 287°
2026-04-24 21:12 33.81347 -113.84262 29839 ft 349 kts 287°
2026-04-24 21:12 33.83471 -113.90541 29820 ft 348 kts 287°
2026-04-24 21:13 33.85293 -113.95933 29818 ft 348 kts 287°
2026-04-24 21:13 33.87111 -114.01324 29816 ft 347 kts 287°
2026-04-24 21:14 33.88923 -114.06705 29813 ft 347 kts 287°
2026-04-24 21:14 33.90663 -114.12060 29811 ft 344 kts 282°
2026-04-24 21:15 33.91683 -114.17660 29806 ft 342 kts 277°
2026-04-24 21:15 33.92581 -114.23295 29809 ft 343 kts 277°
2026-04-24 21:16 33.93503 -114.28932 29808 ft 343 kts 278°
2026-04-24 21:16 33.94446 -114.34578 29810 ft 344 kts 278°
2026-04-24 21:17 33.95391 -114.40197 29791 ft 345 kts 278°
2026-04-24 21:17 33.96188 -114.44937 29802 ft 344 kts 278°
2026-04-24 21:18 33.97291 -114.51504 29800 ft 344 kts 278°
2026-04-24 21:18 33.98234 -114.57143 29802 ft 343 kts 278°
2026-04-24 21:19 33.99167 -114.62734 29806 ft 343 kts 278°
2026-04-24 21:19 34.00103 -114.68364 29805 ft 343 kts 277°
2026-04-24 21:20 34.01503 -114.76813 29793 ft 343 kts 277°
2026-04-24 21:21 34.02433 -114.82447 29807 ft 342 kts 277°
2026-04-24 21:21 34.03360 -114.88074 29798 ft 342 kts 277°
2026-04-24 21:22 34.04282 -114.93690 29792 ft 341 kts 277°
2026-04-24 21:22 34.05195 -114.99269 29808 ft 342 kts 277°
2026-04-24 21:23 34.06113 -115.04895 29798 ft 342 kts 277°
2026-04-24 21:23 34.07030 -115.10529 29814 ft 342 kts 277°
2026-04-24 21:24 34.07947 -115.16175 29807 ft 343 kts 277°
2026-04-24 21:24 34.08861 -115.21814 29814 ft 343 kts 277°
2026-04-24 21:25 34.09774 -115.27470 29807 ft 344 kts 277°
2026-04-24 21:25 34.10678 -115.33088 29808 ft 343 kts 277°
2026-04-24 21:26 34.11583 -115.38729 29814 ft 342 kts 277°
2026-04-24 21:26 34.12483 -115.44352 29807 ft 341 kts 277°
2026-04-24 21:27 34.13376 -115.49956 29820 ft 340 kts 277°
2026-04-24 21:27 34.14263 -115.55540 29822 ft 341 kts 277°
2026-04-24 21:28 34.15157 -115.61172 29832 ft 341 kts 277°
2026-04-24 21:28 34.16048 -115.66815 29824 ft 342 kts 277°
2026-04-24 21:29 34.16122 -115.72487 29833 ft 338 kts 262°
2026-04-24 21:29 34.15537 -115.78125 29840 ft 339 kts 262°
2026-04-24 21:30 34.14967 -115.83728 29856 ft 339 kts 262°
2026-04-24 21:30 34.14412 -115.89378 29862 ft 338 kts 262°
2026-04-24 21:31 34.13864 -115.95008 29887 ft 338 kts 262°
2026-04-24 21:31 34.13313 -116.00637 29899 ft 337 kts 262°
2026-04-24 21:32 34.12766 -116.06218 29900 ft 336 kts 262°
2026-04-24 21:32 34.12496 -116.08969 29894 ft 325 kts 262°
2026-04-24 21:32 34.12231 -116.11667 29893 ft 323 kts 262°
2026-04-24 21:33 34.11700 -116.17037 29846 ft 322 kts 262°
2026-04-24 21:33 34.11524 -116.18812 29617 ft 321 kts 263°
2026-04-24 21:33 34.11177 -116.22328 29220 ft 312 kts 262°
2026-04-24 21:33 34.10922 -116.24895 28882 ft 307 kts 262°
2026-04-24 21:34 34.10668 -116.27435 28537 ft 303 kts 262°
2026-04-24 21:34 34.10416 -116.29950 28166 ft 300 kts 262°
2026-04-24 21:34 34.10160 -116.32403 27774 ft 298 kts 262°
2026-04-24 21:34 34.09897 -116.34865 27410 ft 294 kts 262°
2026-04-24 21:35 34.09636 -116.37300 27060 ft 292 kts 262°
2026-04-24 21:35 34.09375 -116.39721 26697 ft 290 kts 262°
2026-04-24 21:35 34.09117 -116.42122 26318 ft 287 kts 262°
2026-04-24 21:35 34.08862 -116.44502 25980 ft 285 kts 263°
2026-04-24 21:36 34.08608 -116.46865 25635 ft 283 kts 263°
2026-04-24 21:36 34.08358 -116.49180 25305 ft 282 kts 263°
2026-04-24 21:36 34.08107 -116.51518 24965 ft 281 kts 263°
2026-04-24 21:36 34.07855 -116.53850 24611 ft 280 kts 263°
2026-04-24 21:37 34.07604 -116.56171 24271 ft 278 kts 263°
2026-04-24 21:37 34.07354 -116.58474 23929 ft 276 kts 263°
2026-04-24 21:37 34.07123 -116.60771 23614 ft 275 kts 264°
2026-04-24 21:37 34.06912 -116.63050 23366 ft 275 kts 264°
2026-04-24 21:38 34.06700 -116.65386 22994 ft 283 kts 264°
2026-04-24 21:38 34.06483 -116.67764 22671 ft 287 kts 264°
2026-04-24 21:38 34.06268 -116.70130 22406 ft 289 kts 264°
2026-04-24 21:38 34.06043 -116.72539 22123 ft 289 kts 264°
2026-04-24 21:39 34.05817 -116.74951 21794 ft 289 kts 263°
2026-04-24 21:39 34.05589 -116.77351 21519 ft 288 kts 263°
2026-04-24 21:39 34.05366 -116.79746 21229 ft 287 kts 264°
2026-04-24 21:39 34.05145 -116.82140 20938 ft 288 kts 264°
2026-04-24 21:40 34.04921 -116.84535 20679 ft 288 kts 264°
2026-04-24 21:40 34.04694 -116.86937 20372 ft 289 kts 263°
2026-04-24 21:40 34.04465 -116.89315 20109 ft 289 kts 263°
2026-04-24 21:40 34.04172 -116.91713 19806 ft 288 kts 261°
2026-04-24 21:41 34.03851 -116.94100 19506 ft 289 kts 261°
2026-04-24 21:41 34.03531 -116.96491 19224 ft 288 kts 261°
2026-04-24 21:41 34.03218 -116.98873 18923 ft 288 kts 261°
2026-04-24 21:41 34.02908 -117.01247 18636 ft 286 kts 261°
2026-04-24 21:42 34.02602 -117.03607 18349 ft 283 kts 261°
2026-04-24 21:42 34.02321 -117.05944 18037 ft 281 kts 261°
2026-04-24 21:42 34.02048 -117.08267 17723 ft 279 kts 261°
2026-04-24 21:42 34.01782 -117.10538 17424 ft 276 kts 261°
2026-04-24 21:43 34.01514 -117.12813 17142 ft 274 kts 261°
2026-04-24 21:43 34.01245 -117.15097 16868 ft 275 kts 261°
2026-04-24 21:43 34.00973 -117.17384 16585 ft 276 kts 261°
2026-04-24 21:43 34.00700 -117.19674 16292 ft 277 kts 261°
2026-04-24 21:44 34.00425 -117.21977 16009 ft 279 kts 261°
2026-04-24 21:44 34.00147 -117.24299 15732 ft 281 kts 261°
2026-04-24 21:44 33.99963 -117.25841 15532 ft 281 kts 261°
2026-04-24 21:44 33.99684 -117.28164 15275 ft 280 kts 261°
2026-04-24 21:45 33.99404 -117.30491 14980 ft 281 kts 261°
2026-04-24 21:45 33.99037 -117.33590 14603 ft 283 kts 261°
2026-04-24 21:45 33.98761 -117.35952 14305 ft 284 kts 261°
2026-04-24 21:45 33.98486 -117.38298 14017 ft 282 kts 261°
2026-04-24 21:46 33.98213 -117.40624 13727 ft 279 kts 261°
2026-04-24 21:46 33.97941 -117.42929 13391 ft 277 kts 261°
2026-04-24 21:46 33.97762 -117.44448 13203 ft 275 kts 261°
2026-04-24 21:46 33.97494 -117.46714 12911 ft 272 kts 261°
2026-04-24 21:47 33.97346 -117.48980 12615 ft 272 kts 274°
2026-04-24 21:47 33.97745 -117.51202 12364 ft 271 kts 283°
2026-04-24 21:47 33.98266 -117.53367 12109 ft 267 kts 284°
2026-04-24 21:47 33.98957 -117.56194 11767 ft 266 kts 283°
2026-04-24 21:48 33.99479 -117.58354 11478 ft 271 kts 283°
2026-04-24 21:48 33.99826 -117.59806 11288 ft 274 kts 283°
2026-04-24 21:48 34.00356 -117.62033 11005 ft 278 kts 283°
2026-04-24 21:48 34.00887 -117.64283 10716 ft 282 kts 284°
2026-04-24 21:49 34.01426 -117.66566 10415 ft 282 kts 284°
2026-04-24 21:49 34.01957 -117.68833 10123 ft 280 kts 282°
2026-04-24 21:49 34.02115 -117.71136 9907 ft 272 kts 263°
2026-04-24 21:49 34.01889 -117.73315 10023 ft 254 kts 262°
2026-04-24 21:50 34.01682 -117.75352 10040 ft 237 kts 262°
2026-04-24 21:50 34.01488 -117.77281 9988 ft 228 kts 262°
2026-04-24 21:50 34.01301 -117.79177 9940 ft 230 kts 262°
2026-04-24 21:50 34.01108 -117.81137 9936 ft 238 kts 262°
2026-04-24 21:51 34.00912 -117.83139 9939 ft 242 kts 262°
2026-04-24 21:51 34.00716 -117.85145 9871 ft 240 kts 262°
2026-04-24 21:51 34.00522 -117.87124 9610 ft 238 kts 262°
2026-04-24 21:51 34.00330 -117.89085 9304 ft 240 kts 262°
2026-04-24 21:52 34.00134 -117.91074 9059 ft 237 kts 262°
2026-04-24 21:52 33.99941 -117.93046 8736 ft 239 kts 263°
2026-04-24 21:52 33.99747 -117.95030 8463 ft 237 kts 263°
2026-04-24 21:52 33.99553 -117.97004 8108 ft 236 kts 262°
2026-04-24 21:53 33.99361 -117.98960 7780 ft 235 kts 263°
2026-04-24 21:53 33.99168 -118.00911 7436 ft 235 kts 263°
2026-04-24 21:53 33.98972 -118.02878 7114 ft 236 kts 263°
2026-04-24 21:53 33.98776 -118.04835 6779 ft 236 kts 263°
2026-04-24 21:54 33.98581 -118.06782 6523 ft 230 kts 263°
2026-04-24 21:54 33.98397 -118.08627 6239 ft 225 kts 263°
2026-04-24 21:54 33.98201 -118.10596 5487 ft 240 kts 263°
2026-04-24 21:54 33.97997 -118.12634 4682 ft 255 kts 263°
2026-04-24 21:55 33.97789 -118.14802 4050 ft 259 kts 263°
2026-04-24 21:55 33.97612 -118.16842 3888 ft 235 kts 263°
2026-04-24 21:55 33.97427 -118.18720 3627 ft 220 kts 262°
2026-04-24 21:55 33.97239 -118.20524 3357 ft 217 kts 262°
2026-04-24 21:56 33.97049 -118.22346 3072 ft 219 kts 261°
2026-04-24 21:56 33.96860 -118.24162 2773 ft 214 kts 261°
2026-04-24 21:56 33.96687 -118.25853 2500 ft 198 kts 260°
2026-04-24 21:56 33.96524 -118.27429 2229 ft 182 kts 260°
2026-04-24 21:57 33.96373 -118.28888 2014 ft 169 kts 260°
2026-04-24 21:57 33.96233 -118.30247 1801 ft 157 kts 259°
2026-04-24 21:57 33.96104 -118.31505 1563 ft 145 kts 258°
2026-04-24 21:57 33.95981 -118.32693 1407 ft 142 kts 259°
2026-04-24 21:58 33.95856 -118.33875 1187 ft 144 kts 259°
2026-04-24 21:58 33.95737 -118.35060 1030 ft 142 kts 261°
2026-04-24 21:58 33.95614 -118.36252 815 ft 145 kts 259°
2026-04-24 21:58 33.95491 -118.37449 636 ft 144 kts 260°
2026-04-24 21:59 33.95369 -118.38636 400 ft 140 kts 260°
2026-04-24 21:59 33.95256 -118.39745 238 ft 129 kts 260°
2026-04-24 21:59 33.95152 -118.40769 122 ft 117 kts 260°
2026-04-24 21:59 33.95062 -118.41614 112 ft 81 kts 263°
2026-04-24 22:00 33.95012 -118.42111 115 ft 39 kts 264°
2026-04-24 22:00 33.94993 -118.42323 115 ft 22 kts 263°
2026-04-24 22:00 33.94956 -118.42501 114 ft 22 kts 250°
2026-04-24 22:00 33.94887 -118.42633 111 ft 6 kts 229°
2026-04-24 22:01 33.94856 -118.42672 110 ft 6 kts 223°
2026-04-24 22:01 33.94823 -118.42706 113 ft 6 kts 219°
2026-04-24 22:01 33.94789 -118.42738 112 ft 7 kts 214°
2026-04-24 22:01 33.94736 -118.42768 111 ft 10 kts 198°
2026-04-24 22:02 33.94652 -118.42763 109 ft 15 kts 136°
2026-04-24 22:02 33.94642 -118.42643 109 ft 15 kts 83°
2026-04-24 22:02 33.94654 -118.42523 109 ft 14 kts 84°
2026-04-24 22:02 33.94664 -118.42410 109 ft 13 kts 82°
2026-04-24 22:03 33.94677 -118.42301 107 ft 13 kts 83°
2026-04-24 22:03 33.94688 -118.42195 108 ft 13 kts 84°
2026-04-24 22:03 33.94694 -118.42092 108 ft 12 kts 87°
2026-04-24 22:03 33.94707 -118.41993 108 ft 12 kts 79°
2026-04-24 22:04 33.94719 -118.41895 107 ft 12 kts 83°
2026-04-24 22:04 33.94728 -118.41799 108 ft 11 kts 84°
2026-04-24 22:04 33.94737 -118.41706 108 ft 11 kts 82°
2026-04-24 22:04 33.94747 -118.41616 108 ft 11 kts 82°
2026-04-24 22:05 33.94757 -118.41528 109 ft 10 kts 83°
2026-04-24 22:05 33.94766 -118.41442 109 ft 11 kts 77°
2026-04-24 22:05 33.94788 -118.41345 109 ft 14 kts 81°
2026-04-24 22:05 33.94802 -118.41216 109 ft 17 kts 83°
2026-04-24 22:06 33.94818 -118.41061 109 ft 20 kts 83°
2026-04-24 22:06 33.94837 -118.40880 110 ft 23 kts 83°
2026-04-24 22:06 33.94858 -118.40675 110 ft 26 kts 83°
2026-04-24 22:06 33.94878 -118.40468 108 ft 24 kts 83°
2026-04-24 22:07 33.94898 -118.40274 109 ft 23 kts 83°
2026-04-24 22:07 33.94906 -118.40105 109 ft 18 kts 118°
2026-04-24 22:07 33.94836 -118.40024 107 ft 12 kts 138°
2026-04-24 22:07 33.94753 -118.40011 107 ft 12 kts 184°
2026-04-24 22:08 33.94674 -118.40010 106 ft 11 kts 201°
2026-04-24 22:08 33.94655 -118.40060 106 ft 0 kts 260°